FW0472 Weather Reports


Display with metric or nautical units.
time (UTC)temp
F
wind
direction
speed
MPH
gust
MPH
rain 1hr
in
rain 24hr
in
rain mn
in
humidity
%
barometer
mb
20260503231742 48 343 0.0 0.0 0.00 0.00 0.00 52 1034.9
20260503231239 48 12 0.0 1.0 0.00 0.00 0.00 47 1035.0
20260503230734 48 319 3.0 3.0 0.00 0.00 0.00 46 1034.8
20260503230232 49 324 0.0 1.0 0.00 0.00 0.00 46 1034.8
20260503225729 49 311 1.0 1.0 0.00 0.00 0.00 45 1035.0
20260503225229 49 329 0.0 1.0 0.00 0.00 0.00 45 1034.9
20260503224727 49 294 1.0 2.0 0.00 0.00 0.00 47 1035.1
20260503224224 49 317 0.0 1.0 0.00 0.00 0.00 47 1034.8
20260503223722 49 321 0.0 1.0 0.00 0.00 0.00 45 1035.1
20260503223219 50 340 0.0 0.0 0.00 0.00 0.00 46 1035.0
20260503222715 51 323 0.0 1.0 0.00 0.00 0.00 45 1034.9
20260503222213 50 307 2.0 2.0 0.00 0.00 0.00 44 1034.9
20260503221712 50 349 1.0 2.0 0.00 0.00 0.00 47 1034.9
20260503221209 49 319 0.0 1.0 0.00 0.00 0.00 49 1035.0
20260503220705 49 342 1.0 2.0 0.00 0.00 0.00 48 1034.9
20260503220202 49 325 0.0 0.0 0.00 0.00 0.00 49 1034.8
20260503215659 49 319 1.0 1.0 0.00 0.00 0.00 47 1035.1
20260503215155 49 322 0.0 0.0 0.00 0.00 0.00 49 1034.9
20260503214654 49 344 0.0 0.0 0.00 0.00 0.00 49 1034.8
20260503214149 49 325 1.0 2.0 0.00 0.00 0.00 48 1034.7
20260503213643 49 308 1.0 2.0 0.00 0.00 0.00 48 1035.0
20260503213140 50 326 0.0 0.0 0.00 0.00 0.00 46 1034.9
20260503212637 51 118 0.0 2.0 0.00 0.00 0.00 46 1034.8
20260503212134 51 315 1.0 1.0 0.00 0.00 0.00 44 1034.9
20260503211632 51 301 2.0 2.0 0.00 0.00 0.00 46 1034.7
20260503211127 50 325 0.0 1.0 0.00 0.00 0.00 47 1034.9
20260503210624 49 308 1.0 1.0 0.00 0.00 0.00 47 1034.9
20260503210121 48 329 0.0 1.0 0.00 0.00 0.00 48 1034.9
20260503205616 49 293 1.0 2.0 0.00 0.00 0.00 49 1034.9
20260503205113 48 315 1.0 1.0 0.00 0.00 0.00 49 1034.8
20260503204610 48 336 1.0 1.0 0.00 0.00 0.00 47 1034.9
20260503204107 48 250 2.0 3.0 0.00 0.00 0.00 47 1034.7
20260503203604 49 300 1.0 2.0 0.00 0.00 0.00 46 1034.7
20260503203101 50 302 1.0 2.0 0.00 0.00 0.00 45 1034.6
20260503202559 51 353 0.0 1.0 0.00 0.00 0.00 46 1034.6
20260503202057 49 341 0.0 0.0 0.00 0.00 0.00 47 1034.7
20260503201555 48 321 0.0 1.0 0.00 0.00 0.00 47 1034.7
20260503201052 48 298 1.0 1.0 0.00 0.00 0.00 46 1034.6
20260503200548 49 295 1.0 2.0 0.00 0.00 0.00 44 1034.7
20260503200044 49 315 1.0 2.0 0.00 0.00 0.00 44 1034.5
20260503195542 51 312 2.0 3.0 0.00 0.00 0.00 41 1034.5
20260503195038 51 335 1.0 2.0 0.00 0.00 0.00 47 1034.7
20260503194536 50 310 1.0 2.0 0.00 0.00 0.00 45 1034.5
20260503194035 50 296 1.0 1.0 0.00 0.00 0.00 44 1034.6
20260503193532 50 359 0.0 0.0 0.00 0.00 0.00 43 1034.7
20260503193027 50 270 3.0 3.0 0.00 0.00 0.00 43 1034.6
20260503192524 49 284 3.0 3.0 0.00 0.00 0.00 43 1034.7
20260503192020 50 317 1.0 1.0 0.00 0.00 0.00 44 1034.5
20260503191517 50 314 1.0 1.0 0.00 0.00 0.00 43 1034.5
20260503191014 49 34 0.0 1.0 0.00 0.00 0.00 44 1034.4
20260503190511 49 298 1.0 2.0 0.00 0.00 0.00 43 1034.5
20260503190008 50 290 2.0 2.0 0.00 0.00 0.00 43 1034.7
20260503185504 50 280 2.0 2.0 0.00 0.00 0.00 43 1034.7
20260503185004 50 305 1.0 2.0 0.00 0.00 0.00 44 1034.2
20260503184500 51 284 2.0 3.0 0.00 0.00 0.00 40 1034.5
20260503183956 50 314 1.0 1.0 0.00 0.00 0.00 43 1034.5
20260503183453 49 323 0.0 1.0 0.00 0.00 0.00 43 1034.7
20260503182950 49 64 1.0 1.0 0.00 0.00 0.00 43 1034.6
20260503182449 49 315 1.0 2.0 0.00 0.00 0.00 43 1034.7
20260503181946 50 307 0.0 1.0 0.00 0.00 0.00 43 1034.3
20260503181444 50 346 0.0 0.0 0.00 0.00 0.00 43 1034.4
20260503180939 49 102 6.0 11.0 0.00 0.00 0.00 42 1034.6
20260503180438 50 354 2.0 2.0 0.00 0.00 0.00 42 1034.4
20260503175934 48 328 0.0 1.0 0.00 0.00 0.00 48 1034.5
20260503175432 48 292 0.0 1.0 0.00 0.00 0.00 47 1034.6
20260503174928 48 64 0.0 1.0 0.00 0.00 0.00 47 1034.5
20260503174426 48 21 1.0 2.0 0.00 0.00 0.00 48 1034.3
20260503173926 49 292 0.0 1.0 0.00 0.00 0.00 46 1034.1
20260503173423 50 289 1.0 2.0 0.00 0.00 0.00 44 1034.2
20260503172920 49 293 2.0 3.0 0.00 0.00 0.00 42 1034.2
20260503172417 49 328 1.0 1.0 0.00 0.00 0.00 43 1034.2
20260503171913 50 195 1.0 1.0 0.00 0.00 0.00 42 1034.1
20260503171410 50 305 0.0 1.0 0.00 0.00 0.00 44 1034.4
20260503170908 49 252 2.0 3.0 0.00 0.00 0.00 42 1034.3
20260503170403 49 283 1.0 2.0 0.00 0.00 0.00 42 1034.2
20260503150756 46 301 0.0 1.0 0.00 0.00 0.00 60 1035.1
20260503150252 46 19 1.0 1.0 0.00 0.00 0.00 62 1035.1
20260503140216 45 346 0.0 0.0 0.00 0.00 0.00 71 1035.3
20260503131146 44 18 1.0 1.0 0.00 0.00 0.00 79 1035.5
20260503130643 44 330 0.0 0.0 0.00 0.00 0.00 83 1035.7
20260503130141 43 319 0.0 1.0 0.00 0.00 0.00 83 1035.6
20260503120106 41 340 0.0 0.0 0.00 0.00 0.00 86 1035.8
20260503110533 40 33 1.0 1.0 0.00 0.00 0.00 90 1035.8
20260503090420 39 351 0.0 0.0 0.00 0.00 0.00 95 1035.5
20260503081347 39 351 0.0 0.0 0.00 0.00 0.00 95 1036.1
20260503080843 39 351 0.0 0.0 0.00 0.00 0.00 95 1036.4
20260503080341 39 351 0.0 0.0 0.00 0.00 0.00 95 1036.3
20260503072817 39 351 0.0 0.0 0.00 0.00 0.00 95 1036.2
20260503072314 39 351 0.0 0.0 0.00 0.00 0.00 95 1036.5
20260503071810 39 351 0.0 0.0 0.00 0.00 0.00 95 1036.4
20260503071308 39 351 0.0 0.0 0.00 0.00 0.00 95 1036.4
20260503070803 39 351 0.0 0.0 0.00 0.00 0.00 95 1036.6
20260503070302 39 351 0.0 0.0 0.00 0.00 0.00 95 1036.7
20260503060221 39 347 0.0 0.0 0.00 0.00 0.00 95 1037.1
20260503054708 39 347 0.0 0.0 0.00 0.00 0.00 96 1037.3
20260503054205 39 347 0.0 0.0 0.00 0.00 0.00 97 1037.4
20260503053703 39 347 0.0 0.0 0.00 0.00 0.00 97 1037.4
20260503053201 39 347 0.0 0.0 0.00 0.00 0.00 97 1037.4
20260503052657 39 347 0.0 0.0 0.00 0.00 0.00 97 1037.5
20260503052154 39 347 0.0 0.0 0.00 0.00 0.00 97 1037.7
20260503051649 39 347 0.0 0.0 0.00 0.00 0.00 97 1037.4
20260503051147 39 347 0.0 0.0 0.00 0.00 0.00 97 1037.7
20260503050643 39 347 0.0 0.0 0.00 0.00 0.00 97 1037.6
20260503050140 39 346 0.0 0.0 0.00 0.00 0.00 97 1037.6
20260503045637 38 346 0.0 0.0 0.00 0.00 0.00 97 1037.7
20260503045135 39 346 0.0 0.0 0.00 0.00 0.00 97 1037.8
20260503044631 39 346 0.0 0.0 0.00 0.00 0.00 97 1037.9
20260503044129 39 346 0.0 0.0 0.00 0.00 0.00 97 1037.6
20260503043625 38 347 0.0 0.0 0.00 0.00 0.00 97 1037.7
20260503043122 38 333 0.0 0.0 0.00 0.00 0.00 96 1037.8
20260503042619 38 332 0.0 0.0 0.00 0.00 0.00 96 1037.8
20260503042115 38 345 0.0 0.0 0.00 0.00 0.00 96 1037.8
20260503041612 38 349 0.0 0.0 0.00 0.00 0.00 96 1037.9
20260503041110 38 341 0.0 0.0 0.00 0.00 0.00 96 1037.8
20260503040607 39 341 0.0 0.0 0.00 0.00 0.00 95 1037.9
20260503040104 39 345 0.0 0.0 0.00 0.00 0.00 95 1037.9
20260503035600 39 343 0.0 0.0 0.00 0.19 0.19 95 1038.1
20260503035058 39 328 0.0 0.0 0.00 0.19 0.19 95 1038.0
20260503034555 39 330 0.0 0.0 0.00 0.19 0.19 94 1038.1
20260503034052 39 330 0.0 0.0 0.00 0.19 0.19 94 1038.0
20260503033549 39 330 0.0 0.0 0.00 0.19 0.19 93 1038.1
20260503033047 40 334 0.0 0.0 0.00 0.19 0.19 93 1038.0
20260503032545 40 346 0.0 0.0 0.00 0.19 0.19 93 1038.1
20260503032043 40 349 0.0 0.0 0.00 0.19 0.19 93 1038.3
20260503031541 40 353 0.0 0.0 0.00 0.19 0.19 92 1038.2
20260503031038 40 1 0.0 0.0 0.00 0.19 0.19 92 1038.3
20260503030533 41 347 0.0 0.0 0.00 0.19 0.19 91 1038.4
20260503030031 41 347 0.0 0.0 0.00 0.19 0.19 91 1038.5
20260503025527 41 347 0.0 0.0 0.00 0.19 0.19 90 1038.6
20260503025026 41 344 0.0 0.0 0.00 0.19 0.19 90 1038.6
20260503024521 42 350 0.0 0.0 0.00 0.19 0.19 90 1038.6
20260503024019 42 340 0.0 0.0 0.00 0.19 0.19 89 1038.7
20260503023515 42 337 0.0 0.0 0.00 0.19 0.19 89 1038.6
20260503023013 42 347 0.0 0.0 0.00 0.19 0.19 89 1038.8
20260503022508 42 335 0.0 0.0 0.00 0.19 0.19 89 1038.8
20260503022003 43 344 0.0 0.0 0.00 0.19 0.19 89 1038.9
20260503021500 43 349 0.0 0.0 0.00 0.19 0.19 88 1039.0
20260503020957 43 331 0.0 0.0 0.00 0.19 0.19 88 1039.1
20260503020455 43 351 0.0 0.0 0.00 0.19 0.19 89 1039.1
20260503015951 43 327 0.0 0.0 0.00 0.19 0.19 90 1039.1
20260503015448 43 344 0.0 0.0 0.00 0.19 0.19 91 1039.2
20260503014944 43 344 0.0 0.0 0.00 0.19 0.19 91 1039.3
20260503014441 44 343 0.0 0.0 0.00 0.19 0.19 92 1039.3
20260503013939 44 344 0.0 0.0 0.00 0.19 0.19 92 1039.5
20260503013436 44 338 0.0 0.0 0.00 0.19 0.19 92 1039.4
20260503012933 44 339 0.0 0.0 0.00 0.19 0.19 93 1039.3
20260503012431 44 339 0.0 0.0 0.00 0.19 0.19 93 1039.3
20260503011927 44 344 0.0 0.0 0.00 0.19 0.19 93 1039.0
20260503011424 44 344 0.0 0.0 0.00 0.19 0.19 93 1039.0
20260503010921 44 8 0.0 0.0 0.00 0.19 0.19 92 1039.0
20260503010418 44 14 0.0 0.0 0.00 0.19 0.19 92 1038.9
20260503005915 44 340 0.0 0.0 0.00 0.19 0.19 92 1038.7
20260503005412 44 330 0.0 0.0 0.00 0.19 0.19 93 1038.8
20260503004909 44 332 0.0 0.0 0.00 0.19 0.19 93 1038.7
20260503004406 45 345 0.0 0.0 0.00 0.19 0.19 93 1038.6
20260503003903 44 348 0.0 0.0 0.00 0.19 0.19 93 1038.8
20260503003400 45 332 0.0 0.0 0.00 0.19 0.19 92 1038.7
20260503002857 45 2 0.0 1.0 0.00 0.19 0.19 92 1038.5
20260503002355 45 19 1.0 1.0 0.05 0.19 0.19 91 1038.4
20260503001850 45 340 0.0 0.0 0.05 0.19 0.19 91 1038.4
20260503001347 46 85 2.0 2.0 0.00 0.18 0.18 90 1038.4
20260503000845 46 333 0.0 0.0 0.00 0.18 0.18 88 1038.2
20260503000342 46 338 0.0 1.0 0.00 0.18 0.18 86 1038.3
20260502235839 47 336 0.0 0.0 0.00 0.18 0.18 84 1038.0
20260502235336 47 348 0.0 0.0 0.00 0.18 0.18 85 1038.0
20260502234832 48 286 1.0 1.0 0.00 0.18 0.18 86 1037.7
20260502234329 48 330 0.0 0.0 0.00 0.18 0.18 86 1037.6
20260502233826 48 330 0.0 0.0 0.00 0.18 0.18 88 1037.5
20260502233322 48 322 0.0 0.0 0.00 0.18 0.18 88 1037.5
20260502232820 48 319 0.0 0.0 0.00 0.18 0.18 88 1037.6
20260502232316 48 355 0.0 0.0 0.00 0.18 0.18 87 1037.5